Tracking 28915 objects as of 29-May-2024
HD Live streaming from Space Station
objects crossing your sky now

STARLINK-1933

Track STARLINK-1933 now!
10-day predictions
STARLINK-1933 is classified as:


NORAD ID: 46791
Int'l Code: 2020-074BE
Perigee: 553.4 km
Apogee: 555.3 km
Inclination: 53.1 °
Period: 95.6 minutes
Semi major axis: 6925 km
RCS: Unknown
Launch date: October 24, 2020
Source: United States (US)
Launch site: AIR FORCE EASTERN TEST RANGE (AFETR)
Your satellite tracking list
Your tracking list is empty




NASA's NSSDC Master Catalog

Two Line Element Set (TLE):
1 46791U 20074BE  24149.85589959  .00002411  00000-0  18069-3 0  9993
2 46791  53.0539 358.8336 0001420 100.5455 259.5694 15.06399829198737
Source of the keplerian elements: AFSPC